GW2438 Weather Reports


time (UTC)temp
F
wind
direction
speed
knots
gust
knots
rain 1hr
in
rain 24hr
in
rain mn
in
humidity
%
barometer
mb
20260508231536 64 253 5.2 9.6 0.00 0.00 0.00 53 1021.5
20260508230535 65 245 3.5 7.8 0.00 0.00 0.00 52 1021.6
20260508225535 65 267 1.7 5.2 0.00 0.00 0.00 52 1021.6
20260508224531 66 251 4.3 7.0 0.00 0.00 0.00 51 1021.6
20260508223529 67 258 2.6 6.1 0.00 0.00 0.00 50 1021.6
20260508222528 66 223 4.3 8.7 0.00 0.00 0.00 50 1021.7
20260508221526 66 212 3.5 7.8 0.00 0.00 0.00 50 1021.5
20260508220525 66 188 5.2 7.8 0.00 0.00 0.00 51 1021.5
20260508215523 66 256 3.5 7.0 0.00 0.00 0.00 50 1021.6
20260508214541 66 236 3.5 7.0 0.00 0.00 0.00 49 1021.7
20260508213519 66 218 4.3 13.0 0.00 0.00 0.00 49 1021.8
20260508212517 67 228 6.1 11.3 0.00 0.00 0.00 48 1021.8
20260508211516 67 232 3.5 11.3 0.00 0.00 0.00 50 1021.7
20260508210634 68 241 3.5 6.1 0.00 0.00 0.00 50 1021.7
20260508205633 67 226 4.3 7.0 0.00 0.00 0.00 50 1021.6
20260508204611 66 201 3.5 7.8 0.00 0.00 0.00 52 1021.5
20260508203629 65 223 5.2 12.2 0.00 0.00 0.00 51 1021.5
20260508202627 65 229 5.2 11.3 0.00 0.00 0.00 52 1021.4
20260508201606 65 226 3.5 6.1 0.00 0.00 0.00 53 1021.6
20260508200604 66 244 4.3 11.3 0.00 0.00 0.00 52 1021.5
20260508195602 65 201 4.3 7.0 0.00 0.00 0.00 53 1021.5
20260508194600 65 256 4.3 7.8 0.00 0.00 0.00 52 1021.4
20260508193600 65 232 5.2 11.3 0.00 0.00 0.00 52 1021.4
20260508192557 64 240 4.3 7.8 0.00 0.00 0.00 54 1021.5
20260508191555 63 226 4.3 8.7 0.00 0.00 0.00 55 1021.4
20260508190614 62 201 5.2 9.6 0.00 0.00 0.00 55 1021.6
20260508185552 62 232 5.2 13.0 0.00 0.00 0.00 56 1021.5
20260508184550 61 232 3.5 8.7 0.00 0.00 0.00 57 1021.5
20260508183548 61 228 5.2 11.3 0.00 0.00 0.00 58 1021.4
20260508182607 59 234 4.3 9.6 0.00 0.00 0.00 61 1021.5
20260508181545 59 234 6.1 11.3 0.00 0.00 0.00 59 1021.4
20260508175542 60 216 4.3 9.6 0.00 0.00 0.00 59 1020.9
20260508174540 60 225 5.2 8.7 0.00 0.00 0.00 58 1020.7
20260508173538 60 233 7.8 16.5 0.00 0.00 0.00 60 1020.7
20260508172617 59 244 7.8 15.6 0.00 0.00 0.00 60 1020.5
20260508171535 59 235 6.1 11.3 0.00 0.00 0.00 62 1020.5
20260508170533 59 256 5.2 9.6 0.00 0.00 0.00 61 1020.2
20260508165531 58 229 3.5 7.8 0.00 0.00 0.00 67 1020.2
20260508164529 57 249 4.3 11.3 0.00 0.00 0.00 66 1020.1
20260508163548 57 232 2.6 7.0 0.00 0.00 0.00 66 1020.1
20260508162526 58 230 2.6 6.1 0.00 0.00 0.00 64 1020.0
20260508161605 58 226 4.3 7.8 0.00 0.00 0.00 65 1019.8
20260508160523 58 171 1.7 6.1 0.00 0.00 0.00 66 1019.8
20260508155541 58 225 1.7 3.5 0.00 0.00 0.00 66 1019.7
20260508154520 58 223 2.6 6.1 0.00 0.00 0.00 66 1019.9
20260508153518 58 222 2.6 7.0 0.00 0.00 0.00 67 1019.9
20260508152516 58 219 2.6 7.0 0.00 0.00 0.00 66 1019.9
20260508151634 59 206 2.6 8.7 0.00 0.00 0.00 67 1019.9
20260508150613 60 227 1.7 7.0 0.00 0.00 0.00 67 1020.0
20260508145611 60 219 2.6 3.5 0.00 0.00 0.00 70 1020.0
20260508144609 57 224 3.5 9.6 0.00 0.00 0.00 78 1019.8
20260508143628 51 207 2.6 6.1 0.00 0.00 0.00 83 1019.7
20260508142606 49 233 0.9 5.2 0.00 0.00 0.00 84 1019.6
20260508141604 49 184 0.9 1.7 0.00 0.00 0.00 84 1019.4
20260508140602 49 192 1.7 5.2 0.00 0.00 0.00 85 1019.3
20260508135600 48 187 0.9 2.6 0.00 0.00 0.00 85 1019.2
20260508134619 48 237 0.9 2.6 0.00 0.00 0.00 85 1019.0
20260508133557 48 227 0.9 3.5 0.00 0.00 0.00 85 1018.8
20260508132555 48 219 1.7 3.5 0.00 0.00 0.00 85 1018.7
20260508131554 48 231 0.9 2.6 0.00 0.00 0.00 85 1018.4
20260508130552 48 231 0.9 2.6 0.00 0.00 0.00 85 1018.3
20260508125551 48 235 1.7 3.5 0.00 0.00 0.00 85 1018.4
20260508124549 48 217 1.7 3.5 0.00 0.00 0.00 85 1018.1
20260508123607 48 234 0.9 2.6 0.00 0.00 0.00 84 1018.1
20260508122545 48 236 2.6 6.1 0.00 0.00 0.00 84 1018.0
20260508121543 49 231 1.7 3.5 0.00 0.00 0.00 84 1017.9
20260508120542 49 235 3.5 5.2 0.00 0.00 0.00 84 1017.9
20260508115540 49 249 1.7 5.2 0.00 0.00 0.00 84 1017.7
20260508114538 49 233 1.7 3.5 0.00 0.00 0.00 84 1017.7
20260508113537 49 229 2.6 3.5 0.00 0.00 0.00 83 1017.5
20260508112535 49 235 1.7 5.2 0.00 0.00 0.00 83 1017.5
20260508111533 49 228 1.7 3.5 0.00 0.00 0.00 83 1017.5
20260508110532 49 241 1.7 2.6 0.00 0.00 0.00 83 1017.3
20260508105530 49 240 1.7 3.5 0.00 0.00 0.00 83 1017.1
20260508104528 49 254 2.6 6.1 0.00 0.00 0.00 83 1017.0
20260508103526 49 236 1.7 3.5 0.00 0.00 0.00 83 1016.9
20260508102525 49 230 1.7 5.2 0.00 0.00 0.00 83 1016.9
20260508101524 49 243 1.7 3.5 0.00 0.00 0.00 83 1017.0
20260508100521 49 247 1.7 2.6 0.00 0.00 0.00 83 1016.9
20260508095519 49 236 1.7 3.5 0.00 0.00 0.00 83 1016.9
20260508094518 49 233 0.9 3.5 0.00 0.00 0.00 82 1016.9
20260508093516 50 249 0.9 2.6 0.00 0.00 0.00 82 1017.0
20260508092615 50 236 0.9 2.6 0.00 0.00 0.00 82 1016.7
20260508091613 50 241 0.9 3.5 0.00 0.00 0.00 82 1016.8
20260508090611 50 246 0.9 2.6 0.00 0.00 0.00 82 1016.9
20260508085629 50 247 0.0 0.9 0.00 0.00 0.00 81 1016.8
20260508084607 50 247 0.0 0.9 0.00 0.00 0.00 81 1016.8
20260508083606 50 0.0 0.0 0.00 0.00 0.00 80 1016.7
20260508082604 50 0.0 0.0 0.00 0.00 0.00 79 1016.6
20260508081622 51 0.0 0.0 0.00 0.00 0.00 79 1016.6
20260508080601 51 247 0.0 1.7 0.00 0.00 0.00 79 1016.5
20260508075559 51 255 0.0 0.9 0.00 0.00 0.00 78 1016.7
20260508074557 52 255 0.0 0.9 0.00 0.00 0.00 77 1016.6
20260508073555 52 0.0 0.0 0.00 0.00 0.00 77 1016.6
20260508072554 52 0.0 0.0 0.00 0.00 0.00 77 1016.6
20260508071552 53 291 0.0 1.7 0.00 0.00 0.00 77 1016.7
20260508070551 53 259 0.0 1.7 0.00 0.00 0.00 77 1016.8
20260508065549 52 287 0.0 1.7 0.00 0.00 0.00 76 1016.9
20260508064547 52 291 0.0 1.7 0.00 0.00 0.00 75 1016.8
20260508063545 52 291 0.0 0.9 0.00 0.00 0.00 75 1016.7
20260508062543 53 291 0.0 0.9 0.00 0.00 0.00 75 1016.8
20260508061541 53 0.0 0.0 0.00 0.00 0.00 74 1016.7
20260508060540 53 0.0 0.0 0.00 0.00 0.00 74 1016.7
20260508055538 53 291 0.0 0.9 0.00 0.00 0.00 73 1016.6
20260508054536 54 0.0 0.0 0.00 0.00 0.00 72 1016.8
20260508053555 54 0.0 0.0 0.00 0.00 0.00 71 1016.9
20260508052533 55 0.0 0.0 0.00 0.00 0.00 69 1016.8
20260508051531 55 0.0 0.0 0.00 0.00 0.00 69 1016.9
20260508050529 56 0.0 0.0 0.00 0.00 0.00 68 1016.9
20260508045548 56 0.0 0.0 0.00 0.00 0.00 68 1016.8
20260508044526 57 0.0 0.0 0.00 0.00 0.00 66 1016.8
20260508043524 58 0.0 0.0 0.00 0.00 0.00 66 1017.0
20260508042523 58 0.0 0.0 0.00 0.00 0.00 65 1016.9
20260508041541 59 0.0 0.0 0.00 0.00 0.00 65 1016.9
20260508040520 59 12 0.0 0.9 0.00 0.00 0.00 64 1016.8
20260508035517 59 0.0 0.0 0.00 0.00 0.00 62 1016.9
20260508034516 60 0.0 0.0 0.00 0.00 0.00 60 1016.7
20260508033614 61 0.0 0.0 0.00 0.00 0.00 59 1016.7
20260508032613 61 0.0 0.0 0.00 0.00 0.00 59 1016.6
20260508031611 62 12 0.9 1.7 0.00 0.00 0.00 58 1016.7
20260508030612 62 326 0.9 1.7 0.00 0.00 0.00 57 1016.6
20260508025607 62 332 0.0 0.9 0.00 0.00 0.00 57 1016.7
20260508024626 62 331 0.0 0.9 0.00 0.00 0.00 56 1016.7
20260508023604 63 352 0.9 1.7 0.00 0.00 0.00 56 1016.9
20260508022602 63 9 0.9 1.7 0.00 0.00 0.00 55 1016.9
20260508021620 63 4 0.9 1.7 0.00 0.00 0.00 55 1016.9
20260508020659 64 8 0.9 2.6 0.00 0.00 0.00 54 1017.0
20260508015617 64 351 0.9 2.6 0.00 0.00 0.00 54 1017.1
20260508014617 64 358 1.7 2.6 0.00 0.00 0.00 55 1017.1
20260508013553 64 346 2.6 5.2 0.00 0.00 0.00 53 1017.1
20260508012552 64 360 1.7 3.5 0.00 0.00 0.00 54 1017.3
20260508011550 64 31 1.7 3.5 0.00 0.00 0.00 53 1017.4
20260508010548 64 5 1.7 2.6 0.00 0.00 0.00 53 1017.4
20260508005547 64 353 1.7 3.5 0.00 0.00 0.00 53 1017.5
20260508004545 65 28 2.6 3.5 0.00 0.00 0.00 52 1017.6
20260508003543 65 18 2.6 6.1 0.00 0.00 0.00 52 1017.6
20260508002542 64 17 1.7 5.2 0.00 0.00 0.00 52 1017.7
20260508001540 64 359 1.7 5.2 0.00 0.00 0.00 52 1017.8
20260508000538 63 332 1.7 6.1 0.00 0.00 0.00 53 1017.9
20260507235536 64 2 2.6 6.1 0.00 0.00 0.00 52 1018.0
20260507234534 64 342 2.6 6.1 0.00 0.00 0.00 53 1018.0
20260507233533 64 234 0.9 1.7 0.00 0.00 0.00 55 1018.0
20260507232531 63 1 1.7 6.1 0.00 0.00 0.00 54 1018.0